Tracking 29091 objects as of 17-Jul-2024
HD Live streaming from Space Station
objects crossing your sky now

H-2A R/B

Track H-2A R/B now!
10-day predictions


NORAD ID: 43682
Int'l Code: 2018-084L
Perigee: 496.8 km
Apogee: 556.1 km
Inclination: 98.9 °
Period: 95.0 minutes
Semi major axis: 6897 km
RCS: Unknown
Launch date: October 29, 2018
Source: Japan (JPN)
Launch site: TANEGASHIMA SPACE CENTER (TNSTA)

Note: This is a ROCKET BODY
Your satellite tracking list
Your tracking list is empty




NASA's NSSDC Master Catalog

Two Line Element Set (TLE):
1 43682U 18084L   24199.53646587  .00015396  00000-0  79661-3 0  9999
2 43682  98.8521 291.9560 0043049 268.0943  91.5355 15.15549696314098
Source of the keplerian elements: AFSPC